Regional Weather Roundup
Issued by NWS

Home | Current Version | Previous Version | Graphics & Text | Print | Product List | Glossary On
Versions: 1 2 3 4 5 6 7 8 9 10 11 12 13 14 15 16 17 18 19 20 21 22 23 24 25 26 27 28 29 30 31 32 33 34 35 36 37 38 39 40 41 42 43 44 45 46 47 48 49 50
000
ASUS43 KBIS 171410
RWRND

NORTH DAKOTA REGIONAL WEATHER ROUNDUP
NATIONAL WEATHER SERVICE BISMARCK ND
900 AM CDT THU AUG 17 2017

NOTE: "FAIR" INDICATES FEW OR NO CLOUDS BELOW 12,000 FEET WITH NO
SIGNIFICANT WEATHER AND/OR OBSTRUCTIONS TO VISIBILITY.


NDZ001>003-009>011-017-171500-
NORTHWEST NORTH DAKOTA

CITY           SKY/WX    TMP DP  RH WIND       PRES   REMARKS
WILLISTON      SUNNY     66  53  63 SW8       29.83R
MINOT          SUNNY     67  54  63 S5        29.85S
MINOT AFB      SUNNY     66  55  66 CALM      29.85R
$$

NDZ018>021-031>035-040>046-171500-
SOUTHWEST NORTH DAKOTA

CITY           SKY/WX    TMP DP  RH WIND       PRES   REMARKS
BISMARCK       MOSUNNY   60  57  89 CALM      29.91S
DICKINSON      SUNNY     65  51  60 S14       29.87S
GARRISON         N/A     64  58  80 S7        29.88R
HETTINGER ARPT SUNNY     64  51  62 S5        29.92R
$$

NDZ004>008-012>016-024-026-027-054-171500-
NORTHEAST NORTH DAKOTA

CITY           SKY/WX    TMP DP  RH WIND       PRES   REMARKS
GRAND FORKS    FOG       61  61 100 N8        29.84R VSB 1/4
GRND FRKS AFB  CLOUDY    61  61 100 N6        29.85S FOG
DEVILS LAKE    SUNNY     61  58  90 NW6       29.88S
$$

NDZ022-023-025-028>030-036>039-047>053-171500-
SOUTHEAST NORTH DAKOTA

CITY           SKY/WX    TMP DP  RH WIND       PRES   REMARKS
FARGO          CLOUDY    64  61  90 N17       29.82R
JAMESTOWN      SUNNY     63  59  87 NW5       29.87S
$$





USA.gov is the U.S. government's official web portal to all federal, state and local government web resources and services.